Location: Newark
(34.9500°N, 139.9667°E)
Time: 20:41:35
(UTC+00:00)

Altair - Pass Details

Date: 12 December 2019
Orbit: 1502 x 1682 km, 47.2° (Epoch: 18 January)

Event Time Altitude Azimuth Distance (km) Brightness Sun altitude
Rises 10:05:06 0° 220° (SW) 4,845 10.8 -31.2°
Reaches altitude 10° 10:08:17 10° 218° (SW) 3,838 10.1 -31.8°
Maximum altitude 10:17:54 67° 138° (SE) 1,684 7.4 -33.8°
Enters shadow 10:18:00 67° 135° (SE) 1,684 7.4 -33.8°
